Tracking 27086 objects as of 22-Mar-2023
HD Live streaming from Space Station
objects crossing your sky now

ORCASAT

Track ORCASAT now!
10-day predictions


NORAD ID: 55126
Int'l Code: 1998-067UT
Perigee: 382.0 km
Apogee: 390.7 km
Inclination: 51.6 °
Period: 92.1 minutes
Semi major axis: 6757 km
RCS: Unknown
Launch date: November 20, 1998
Source: Canada (CA)
Launch site: TYURATAM MISSILE AND SPACE COMPLEX (TTMTR)
Your satellite tracking list
Your tracking list is empty




NASA's NSSDC Master Catalog

Two Line Element Set (TLE):
1 55126U 98067UT  23081.15003416  .00110082  00000-0  11812-2 0  9990
2 55126  51.6398  36.0677 0006433 133.0751 227.0783 15.62927983 12956
Source of the keplerian elements: AFSPC